Wind_Speed
5 7 9 11 12 13 12 11 10 9 9 8 6 5 4 9 18 18 18 17 11 7 4 3 5 10 11 9 9 8 5 8 2 2 4 7 3 7 6 8 8 8 3 6 8
4 5 7 9 11 13 13 12 11 10 10 9 8 6 5 6 15 20 22 18 12 8 6 4 5 9 7 7 5 4 8 7 5 2 3 4 2 5 2 3 8 6 5 5 11
2 3 5 6 9 11 13 13 13 11 10 9 8 7 6 5 11 21 23 19 13 10 8 4 4 9 4 4 3 4 4 5 5 5 2 2 2 3 1 6 5 5 3 5 14
3 4 4 6 7 8 10 12 13 13 11 9 8 8 8 6 5 20 23 20 15 10 7 4 6 3 3 2 2 2 5 8 6 6 3 2 3 2 2 4 3 5 1 7 13
4 5 5 5 6 7 8 9 11 13 13 11 10 8 8 8 12 20 24 22 16 11 7 5 3 3 3 2 3 2 6 8 8 5 3 1 2 2 2 2 7 5 6 11 13
6 6 6 7 7 8 7 8 9 11 12 12 11 9 9 9 12 19 24 23 18 12 8 5 4 4 4 3 2 8 8 6 6 3 4 1 2 1 3 2 5 5 9 12 12
7 7 7 8 8 9 8 8 8 9 11 13 13 11 10 12 14 19 24 24 21 14 10 8 7 4 4 3 7 8 6 7 5 6 3 2 3 3 2 3 3 6 11 13 14
8 8 8 9 9 9 8 8 8 9 10 13 14 13 12 12 12 18 25 24 23 16 13 9 8 6 3 4 6 5 3 6 6 7 6 1 3 5 5 4 4 8 12 15 13
8 9 9 9 10 9 8 9 9 9 11 12 15 15 13 12 14 19 24 23 25 18 14 11 9 6 7 3 4 5 9 7 2 3 4 5 3 3 6 6 7 5 11 13 16
8 9 9 10 10 9 7 8 9 10 11 11 14 13 13 19 17 19 24 25 22 21 17 13 9 7 6 7 11 11 7 6 5 4 5 7 6 5 6 10 9 7 8 13 15
7 8 9 9 10 8 6 7 8 11 11 13 13 21 15 18 17 20 23 23 23 19 21 15 14 13 7 3 6 7 6 5 4 4 3 8 9 9 8 11 12 11 10 9 11
7 8 9 9 9 8 7 7 7 10 10 13 17 19 15 21 20 22 23 23 21 24 22 20 22 13 9 7 7 7 3 4 2 6 4 8 11 10 11 8 11 13 13 12 11
7 7 8 7 8 8 7 7 6 7 7 12 15 18 23 19 22 18 26 25 20 24 24 27 20 16 13 10 9 8 8 5 7 8 8 10 9 3 2 9 12 13 14 16 14
7 7 8 7 7 7 8 6 5 5 2 6 11 16 21 22 21 24 25 21 20 24 23 26 22 18 16 15 9 14 4 6 6 8 7 7 7 2 5 5 7 11 15 17 16
7 7 7 7 6 7 7 6 5 4 5 6 8 14 18 21 13 22 25 26 19 19 25 27 24 24 21 16 9 10 6 4 7 8 9 3 8 2 4 5 7 9 13 17 17
9 7 8 7 6 8 8 7 5 3 4 2 4 6 13 22 13 16 22 22 19 18 21 27 22 24 24 16 13 9 7 8 7 7 12 5 6 1 5 5 3 3 8 11 18
9 7 8 8 7 8 9 7 3 8 4 4 5 5 10 16 17 14 22 21 19 19 19 20 26 24 21 22 14 13 12 12 7 7 3 5 8 4 6 8 3 5 4 4 10
10 9 8 9 8 8 10 8 9 4 5 2 4 6 10 15 20 14 20 23 23 18 14 20 22 25 22 28 20 18 17 15 5 4 7 3 4 3 9 11 5 3 2 5 10
10 9 9 9 9 10 13 13 5 6 5 2 1 7 10 13 15 17 17 23 23 21 18 18 23 16 21 20 22 17 17 14 12 10 11 6 5 9 5 9 9 3 4 5 8
9 9 9 10 11 12 13 15 9 8 5 2 3 4 9 12 13 21 19 15 23 23 21 13 12 21 22 19 20 17 5 12 17 8 9 3 6 10 6 10 9 3 5 5 9
7 8 8 10 12 14 14 13 13 11 9 2 4 2 6 9 13 13 18 17 17 22 22 19 14 11 22 30 28 22 19 15 9 6 9 9 3 1 8 10 12 3 6 7 2
6 4 9 10 12 13 13 13 13 9 13 10 8 6 7 6 9 13 16 16 16 18 24 23 16 15 20 21 27 24 25 21 19 12 12 11 18 11 10 15 12 8 6 9 6
8 10 9 11 8 10 13 11 12 10 11 9 8 7 6 4 5 10 8 12 19 19 19 21 18 18 14 22 21 26 24 19 19 17 13 14 14 7 14 8 9 12 9 7 8
9 5 10 14 15 9 9 9 8 10 11 13 11 9 8 8 10 7 7 7 11 19 22 23 20 23 20 23 25 27 25 23 23 22 18 16 16 11 8 8 8 12 13 11 11
11 11 13 9 12 10 8 7 7 7 9 9 10 12 9 6 8 10 7 5 1 13 24 19 23 17 17 17 15 27 28 27 24 22 23 17 16 13 14 13 14 14 15 17 11
13 14 15 16 14 17 12 8 9 7 8 9 10 8 9 11 7 6 4 5 6 3 21 20 16 18 18 16 15 17 22 26 24 25 20 20 22 18 15 16 19 21 17 20 13
14 15 15 13 14 10 10 12 8 10 8 11 10 8 6 8 13 14 11 9 6 5 6 19 18 14 18 15 14 20 21 20 19 19 19 24 23 19 17 15 21 22 18 17 14
Wind_Direction
216 223 227 227 227 226 224 217 213 213 214 217 213 217 223 210 200 194 194 198 190 185 127 59 19 358 349 7 5 4 2 20 24 11 94 89 101 69 76 47 39 30 48 181 202
215 225 230 234 234 233 231 227 220 214 217 218 214 213 216 213 201 197 195 198 192 185 137 49 355 347 334 353 341 23 10 21 33 205 137 146 130 34 92 132 13 20 6 196 179
262 244 238 238 237 237 236 232 228 222 220 216 213 213 214 212 202 203 194 196 195 184 149 128 322 346 284 313 308 336 10 21 25 53 127 134 4 31 275 354 314 347 343 163 161
261 257 253 248 244 238 236 234 228 223 221 218 214 210 211 201 179 201 194 194 195 189 165 138 314 23 336 341 309 3 330 342 349 31 18 183 215 328 216 315 333 317 175 134 160
272 269 267 263 258 248 239 234 229 222 219 216 214 212 206 204 201 196 195 194 193 179 170 149 276 303 338 333 351 304 310 323 332 350 32 308 233 253 261 321 314 265 177 143 156
277 273 269 266 263 257 247 237 229 224 219 216 215 215 209 206 205 196 196 195 196 176 175 163 241 243 318 350 358 338 320 306 320 300 10 204 258 150 286 358 317 199 173 151 157
276 274 272 269 265 265 265 256 246 232 222 214 215 218 215 215 209 206 197 198 199 185 180 196 223 275 296 328 12 346 359 345 315 281 289 214 234 219 233 69 45 177 173 167 161
265 264 267 267 265 261 257 258 252 244 229 216 213 216 217 220 211 204 200 199 206 196 194 198 223 266 303 322 3 1 354 350 292 307 257 290 45 249 209 110 83 173 182 181 178
265 261 257 258 262 261 258 250 246 243 234 220 214 214 216 215 205 205 204 200 212 208 206 205 223 250 282 298 234 8 360 11 344 330 253 230 351 246 207 153 159 156 190 189 184
265 262 258 254 255 257 252 248 241 240 237 225 214 210 216 209 209 200 206 205 211 217 218 210 219 247 252 268 7 345 339 7 11 303 274 251 264 247 206 192 183 170 173 196 198
268 265 261 255 251 252 243 245 247 251 232 216 207 208 209 206 207 201 202 204 211 215 215 218 220 229 240 286 325 333 339 347 329 323 264 267 268 250 226 205 203 192 183 175 186
269 266 263 256 250 242 236 235 237 244 240 226 219 214 211 205 202 205 194 194 205 214 214 219 220 226 234 279 320 333 336 22 358 338 311 292 293 262 230 215 202 202 197 190 189
268 268 268 258 247 232 230 235 241 246 245 235 222 214 211 205 203 203 199 199 213 210 218 221 223 227 240 255 287 293 299 323 329 312 282 314 276 264 234 219 226 214 200 198 196
269 262 268 266 246 226 225 225 230 251 218 244 223 216 213 208 216 210 198 201 210 215 219 224 221 225 235 246 272 293 316 282 299 315 338 322 321 253 235 237 243 221 212 213 205
268 253 260 261 246 224 215 209 214 173 234 234 213 209 210 194 209 212 205 201 209 216 212 221 219 225 231 230 256 298 306 272 293 290 291 159 279 106 298 260 285 258 228 221 210
263 248 251 256 236 220 209 200 196 207 202 177 192 202 199 201 196 207 206 205 206 218 228 225 232 226 229 229 246 268 281 272 281 269 250 54 323 184 13 350 303 177 231 223 210
266 247 239 242 233 213 200 187 210 235 209 167 188 190 194 203 199 198 196 199 200 203 218 220 226 225 223 225 237 248 257 265 248 224 57 10 300 338 347 331 328 261 229 202 199
267 252 233 236 226 207 193 185 232 225 188 225 243 225 199 198 200 206 204 209 209 216 218 208 214 214 220 222 225 233 249 269 243 311 346 288 263 34 346 7 8 255 214 203 215
264 252 238 227 220 204 190 207 223 207 191 306 231 192 196 194 201 201 208 215 216 210 218 215 224 215 212 211 214 224 238 250 288 256 259 292 288 296 19 3 360 304 269 233 185
261 250 233 222 210 197 199 216 223 208 192 342 192 178 197 190 193 209 210 227 219 220 207 227 232 218 214 204 215 218 247 227 224 268 271 290 271 253 313 345 352 303 239 202 192
253 242 231 217 205 194 210 224 230 232 215 252 199 267 201 196 206 214 216 226 214 217 206 213 225 214 210 215 212 214 230 241 288 279 302 285 280 265 307 320 329 277 246 192 186
236 227 225 207 192 203 223 232 235 230 247 251 251 259 215 206 217 221 219 215 222 207 207 206 221 226 224 218 216 229 223 226 226 230 244 294 283 290 294 318 323 312 292 231 249
227 227 220 200 195 224 234 238 235 232 233 238 241 238 228 227 232 211 215 223 230 206 207 203 217 223 224 202 215 220 221 231 239 254 272 281 286 321 316 307 292 309 307 253 243
217 207 216 211 215 198 220 231 234 250 238 233 235 249 254 259 234 193 200 229 226 217 214 212 219 222 223 225 220 218 223 227 234 243 248 243 281 292 307 310 296 297 297 281 245
213 220 202 216 221 212 214 228 231 245 243 228 241 234 238 246 219 214 207 216 204 214 198 201 220 227 233 234 232 220 224 225 231 245 261 272 283 285 293 297 301 303 266 272 261
216 214 213 221 217 222 228 235 236 244 232 223 212 227 250 243 224 192 194 193 203 225 211 200 228 228 231 227 221 228 231 234 231 247 256 259 268 276 288 295 293 287 272 255 251
220 219 219 231 224 216 226 226 232 237 239 226 229 242 257 246 228 215 203 201 221 179 218 211 210 218 230 217 227 230 226 221 228 236 253 256 261 268 272 285 291 293 273 264 253
Height
3157 3158 3159 3160 3161 3162 3164 3165 3167 3168 3169 3169 3170 3170 3170 3170 3172 3175 3176 3178 3179 3180 3182 3181 3180 3180 3179 3178 3178 3178 3178 3176 3177 3177 3178 3177 3177 3176 3175 3175 3174 3173 3173 3173 3174
3156 3157 3157 3158 3159 3161 3162 3164 3166 3167 3168 3168 3169 3170 3170 3170 3171 3173 3175 3177 3179 3181 3182 3181 3182 3182 3181 3180 3179 3180 3180 3179 3177 3178 3179 3178 3178 3176 3177 3176 3175 3173 3173 3172 3173
3155 3155 3156 3156 3157 3158 3160 3162 3164 3165 3166 3167 3167 3168 3169 3170 3172 3172 3174 3177 3179 3181 3182 3183 3183 3183 3182 3182 3182 3181 3181 3179 3178 3178 3177 3178 3177 3177 3177 3176 3177 3174 3172 3172 3173
3154 3154 3154 3155 3155 3156 3157 3159 3161 3163 3164 3165 3166 3167 3168 3169 3175 3171 3174 3177 3179 3182 3183 3184 3183 3183 3184 3184 3181 3182 3179 3179 3178 3178 3177 3178 3178 3176 3177 3177 3176 3173 3172 3172 3173
3153 3153 3153 3153 3153 3154 3155 3157 3158 3160 3162 3164 3165 3166 3167 3169 3169 3170 3173 3176 3179 3182 3183 3184 3184 3185 3185 3183 3181 3181 3180 3179 3177 3178 3177 3178 3177 3178 3177 3175 3173 3172 3172 3172 3174
3151 3151 3151 3151 3152 3152 3153 3154 3156 3158 3160 3162 3164 3165 3167 3168 3168 3169 3172 3176 3179 3181 3183 3184 3184 3184 3185 3184 3183 3181 3179 3178 3178 3178 3177 3178 3177 3177 3176 3174 3171 3171 3172 3173 3175
3150 3150 3150 3150 3150 3150 3151 3152 3153 3155 3157 3159 3161 3162 3164 3166 3166 3167 3171 3175 3178 3180 3182 3183 3183 3184 3184 3184 3182 3180 3180 3178 3177 3177 3178 3178 3177 3177 3175 3173 3171 3171 3172 3173 3175
3149 3148 3148 3148 3148 3149 3150 3151 3151 3152 3154 3156 3158 3160 3162 3163 3164 3166 3170 3174 3177 3179 3181 3182 3182 3183 3184 3183 3182 3181 3179 3179 3178 3176 3176 3177 3176 3174 3174 3173 3172 3171 3172 3173 3176
3147 3147 3147 3147 3146 3147 3148 3149 3149 3150 3151 3154 3156 3158 3160 3162 3163 3165 3168 3173 3175 3178 3180 3182 3182 3184 3184 3184 3181 3180 3179 3179 3179 3176 3176 3177 3177 3174 3173 3173 3174 3173 3173 3173 3176
3144 3144 3144 3144 3145 3145 3146 3147 3147 3148 3149 3151 3153 3158 3157 3158 3160 3162 3166 3170 3174 3176 3180 3182 3183 3184 3184 3180 3179 3181 3179 3179 3179 3178 3175 3176 3175 3174 3173 3173 3175 3175 3175 3174 3175
3142 3142 3141 3141 3142 3144 3145 3145 3148 3148 3147 3148 3149 3150 3152 3155 3158 3160 3163 3168 3172 3175 3179 3181 3183 3181 3180 3182 3182 3182 3180 3178 3178 3177 3175 3174 3174 3174 3172 3172 3175 3175 3176 3176 3177
3140 3139 3139 3139 3140 3141 3142 3143 3144 3145 3145 3144 3146 3147 3149 3151 3154 3157 3162 3167 3170 3173 3177 3180 3179 3180 3181 3182 3182 3180 3179 3177 3178 3176 3175 3173 3171 3171 3170 3170 3172 3173 3175 3177 3179
3138 3137 3137 3137 3138 3140 3140 3141 3141 3141 3142 3142 3143 3145 3147 3150 3152 3155 3159 3163 3167 3171 3172 3174 3176 3178 3180 3180 3180 3177 3177 3177 3179 3176 3173 3171 3167 3168 3167 3168 3169 3170 3173 3175 3177
3136 3135 3135 3135 3138 3137 3138 3139 3139 3140 3142 3142 3140 3142 3144 3147 3150 3152 3155 3163 3166 3167 3171 3172 3174 3176 3178 3179 3180 3176 3177 3178 3177 3176 3170 3171 3165 3165 3166 3166 3166 3168 3169 3172 3175
3134 3134 3133 3133 3134 3135 3137 3137 3138 3139 3137 3140 3138 3138 3140 3146 3147 3149 3152 3158 3162 3164 3168 3167 3170 3173 3174 3176 3177 3177 3177 3177 3176 3174 3171 3169 3167 3164 3165 3166 3165 3165 3167 3170 3172
3131 3132 3131 3132 3132 3133 3134 3136 3138 3142 3134 3138 3136 3137 3139 3142 3146 3146 3150 3154 3160 3162 3163 3164 3167 3170 3171 3174 3176 3176 3177 3175 3173 3171 3164 3168 3169 3158 3163 3165 3164 3164 3165 3165 3167
3129 3129 3129 3130 3131 3132 3133 3136 3141 3136 3136 3137 3137 3137 3139 3141 3144 3146 3148 3151 3154 3158 3158 3161 3162 3166 3169 3171 3173 3175 3174 3168 3168 3164 3159 3167 3167 3162 3164 3163 3162 3161 3161 3162 3163
3126 3126 3127 3128 3129 3130 3132 3137 3137 3134 3134 3133 3134 3135 3137 3139 3142 3144 3147 3149 3151 3154 3153 3156 3158 3160 3163 3166 3170 3171 3171 3166 3168 3163 3159 3164 3162 3159 3163 3160 3159 3159 3160 3160 3161
3123 3123 3124 3125 3127 3129 3132 3135 3132 3133 3132 3133 3133 3134 3135 3136 3139 3142 3143 3145 3148 3149 3153 3153 3154 3156 3160 3164 3167 3168 3170 3168 3163 3162 3163 3157 3161 3161 3161 3160 3159 3158 3157 3157 3158
3120 3121 3121 3122 3124 3127 3131 3131 3131 3129 3130 3132 3133 3133 3133 3134 3137 3138 3140 3141 3144 3146 3150 3152 3153 3154 3158 3161 3163 3163 3165 3166 3164 3161 3158 3153 3158 3158 3160 3160 3158 3157 3156 3156 3157
3118 3118 3119 3120 3122 3125 3127 3129 3129 3128 3129 3132 3132 3132 3132 3133 3134 3135 3136 3139 3139 3142 3146 3150 3151 3150 3154 3153 3156 3162 3163 3163 3160 3161 3157 3154 3151 3154 3158 3158 3157 3156 3155 3156 3156
3115 3118 3116 3118 3122 3123 3125 3125 3124 3127 3127 3128 3128 3130 3131 3131 3132 3132 3133 3135 3137 3139 3141 3145 3147 3146 3147 3150 3153 3155 3157 3158 3159 3158 3158 3160 3157 3154 3155 3154 3154 3154 3154 3154 3155
3112 3113 3114 3116 3121 3121 3121 3122 3122 3124 3126 3128 3128 3128 3128 3130 3131 3130 3130 3132 3132 3136 3138 3142 3142 3142 3145 3148 3149 3150 3153 3154 3154 3154 3155 3155 3151 3151 3152 3151 3151 3150 3151 3152 3152
3110 3113 3112 3113 3114 3117 3119 3121 3122 3121 3122 3123 3125 3126 3127 3127 3128 3129 3129 3129 3129 3131 3135 3138 3138 3138 3137 3140 3144 3148 3149 3151 3152 3151 3150 3149 3150 3151 3151 3150 3149 3148 3147 3148 3148
3107 3108 3108 3112 3113 3115 3116 3118 3119 3120 3119 3120 3122 3123 3125 3126 3126 3126 3128 3128 3127 3127 3130 3134 3135 3136 3137 3137 3138 3140 3144 3146 3147 3148 3147 3146 3146 3148 3149 3148 3147 3145 3144 3143 3145
3103 3105 3106 3107 3109 3111 3114 3116 3117 3118 3118 3120 3121 3122 3122 3123 3125 3125 3126 3127 3127 3126 3127 3130 3132 3132 3133 3134 3136 3137 3138 3139 3142 3145 3145 3146 3145 3146 3145 3144 3143 3141 3140 3140 3142
3099 3100 3103 3104 3106 3109 3112 3113 3114 3114 3116 3116 3117 3117 3120 3120 3120 3120 3121 3122 3124 3125 3126 3127 3128 3130 3129 3131 3134 3134 3134 3137 3139 3141 3143 3141 3142 3142 3141 3142 3138 3137 3136 3136 3138